Time,TemperatureF,DewpointF,PressureIn,WindDirection,WindDirectionDegrees,WindSpeedMPH,WindSpeedGustMPH,Humidity,HourlyPrecipIn,Conditions,Clouds,dailyrainin,SoftwareType,DateUTC
2013-04-16 00:10:00,48.3,33.0,30.26,NW,319,1.0,6.0,57,0.00,,,0.00,weatherlink.com 1.10,2013-04-16 04:10:00,
2013-04-16 00:25:00,48.5,34.0,30.25,NE,49,2.0,7.0,57,0.00,,,0.00,weatherlink.com 1.10,2013-04-16 04:25:00,
2013-04-16 00:40:00,48.3,33.0,30.25,East,90,0.0,7.0,57,0.00,,,0.00,weatherlink.com 1.10,2013-04-16 04:40:00,
2013-04-16 00:55:00,48.1,33.0,30.24,SE,131,2.0,6.0,57,0.00,,,0.00,weatherlink.com 1.10,2013-04-16 04:55:00,
2013-04-16 01:10:00,47.7,33.0,30.24,NNE,27,3.0,5.0,58,0.00,,,0.00,weatherlink.com 1.10,2013-04-16 05:10:00,
2013-04-16 01:25:00,47.8,33.0,30.24,NE,44,3.0,6.0,58,0.00,,,0.00,weatherlink.com 1.10,2013-04-16 05:25:00,
2013-04-16 01:40:00,47.6,33.0,30.24,South,170,2.0,8.0,58,0.00,,,0.00,weatherlink.com 1.10,2013-04-16 05:40:00,
2013-04-16 01:55:00,47.4,34.0,30.24,WSW,249,0.0,7.0,59,0.00,,,0.00,weatherlink.com 1.10,2013-04-16 05:55:00,
2013-04-16 02:10:00,47.1,33.0,30.25,South,190,4.0,5.0,59,0.00,,,0.00,weatherlink.com 1.10,2013-04-16 06:10:00,
2013-04-16 02:25:00,46.6,33.0,30.24,WSW,253,4.0,10.0,59,0.00,,,0.00,weatherlink.com 1.10,2013-04-16 06:25:00,
2013-04-16 02:40:00,46.3,33.0,30.24,SW,219,2.0,7.0,60,0.00,,,0.00,weatherlink.com 1.10,2013-04-16 06:40:00,
2013-04-16 02:55:00,46.3,33.0,30.25,SSW,194,2.0,9.0,60,0.00,,,0.00,weatherlink.com 1.10,2013-04-16 06:55:00,
2013-04-16 03:10:00,45.8,33.0,30.25,South,175,3.0,9.0,62,0.00,,,0.00,weatherlink.com 1.10,2013-04-16 07:10:00,
2013-04-16 03:25:00,46.0,33.0,30.24,West,275,6.0,13.0,61,0.00,,,0.00,weatherlink.com 1.10,2013-04-16 07:25:00,
2013-04-16 03:40:00,46.0,33.0,30.24,West,267,2.0,9.0,61,0.00,,,0.00,weatherlink.com 1.10,2013-04-16 07:40:00,
2013-04-16 03:55:00,46.1,33.0,30.24,ENE,57,3.0,11.0,61,0.00,,,0.00,weatherlink.com 1.10,2013-04-16 07:55:00,
2013-04-16 04:11:00,46.1,33.0,30.23,WSW,253,2.0,7.0,61,0.00,,,0.00,weatherlink.com 1.10,2013-04-16 08:11:00,
2013-04-16 04:26:00,46.2,34.0,30.23,WNW,287,0.0,9.0,62,0.00,,,0.00,weatherlink.com 1.10,2013-04-16 08:26:00,
2013-04-16 04:41:00,46.1,34.0,30.22,NW,316,3.0,9.0,62,0.00,,,0.00,weatherlink.com 1.10,2013-04-16 08:41:00,
2013-04-16 04:56:00,46.1,34.0,30.22,NW,317,1.0,8.0,62,0.00,,,0.00,weatherlink.com 1.10,2013-04-16 08:56:00,
2013-04-16 05:11:00,46.1,34.0,30.21,SSW,198,1.0,8.0,63,0.00,,,0.00,weatherlink.com 1.10,2013-04-16 09:11:00,
2013-04-16 05:26:00,46.2,34.0,30.22,ENE,71,1.0,9.0,63,0.00,,,0.00,weatherlink.com 1.10,2013-04-16 09:26:00,
2013-04-16 05:41:00,46.2,34.0,30.21,SW,235,3.0,11.0,62,0.00,,,0.00,weatherlink.com 1.10,2013-04-16 09:41:00,
2013-04-16 05:56:00,46.2,34.0,30.21,NNW,346,1.0,10.0,62,0.00,,,0.00,weatherlink.com 1.10,2013-04-16 09:56:00,
2013-04-16 06:12:00,46.3,34.0,30.20,NW,319,2.0,11.0,63,0.00,,,0.00,weatherlink.com 1.10,2013-04-16 10:12:00,
2013-04-16 06:41:00,46.6,34.0,30.20,East,82,2.0,11.0,63,0.00,,,0.00,weatherlink.com 1.10,2013-04-16 10:41:00,
2013-04-16 06:56:00,46.5,35.0,30.20,SW,214,1.0,5.0,64,0.00,,,0.00,weatherlink.com 1.10,2013-04-16 10:56:00,
2013-04-16 07:11:00,46.7,35.0,30.20,West,267,1.0,7.0,64,0.00,,,0.00,weatherlink.com 1.10,2013-04-16 11:11:00,
2013-04-16 07:41:00,47.5,35.0,30.19,SW,226,1.0,8.0,63,0.00,,,0.00,weatherlink.com 1.10,2013-04-16 11:41:00,
2013-04-16 08:26:00,48.3,36.0,30.17,WNW,288,6.0,10.0,62,0.00,,,0.00,weatherlink.com 1.10,2013-04-16 12:26:00,
2013-04-16 08:41:00,48.5,36.0,30.16,SW,231,2.0,8.0,63,0.00,,,0.00,weatherlink.com 1.10,2013-04-16 12:41:00,
2013-04-16 08:56:00,48.7,36.0,30.15,East,91,2.0,15.0,63,0.00,,,0.00,weatherlink.com 1.10,2013-04-16 12:56:00,
2013-04-16 09:11:00,48.8,37.0,30.14,SSE,150,3.0,10.0,63,0.00,,,0.00,weatherlink.com 1.10,2013-04-16 13:11:00,
2013-04-16 09:26:00,48.9,37.0,30.14,WNW,294,7.0,13.0,64,0.00,,,0.00,weatherlink.com 1.10,2013-04-16 13:26:00,
2013-04-16 09:41:00,49.2,37.0,30.14,SSW,211,6.0,14.0,64,0.00,,,0.00,weatherlink.com 1.10,2013-04-16 13:41:00,
2013-04-16 09:56:00,49.3,38.0,30.13,ENE,72,4.0,10.0,65,0.00,,,0.00,weatherlink.com 1.10,2013-04-16 13:56:00,
2013-04-16 10:11:00,49.8,38.0,30.11,NW,309,3.0,12.0,65,0.00,,,0.00,weatherlink.com 1.10,2013-04-16 14:11:00,
2013-04-16 10:26:00,50.1,39.0,30.10,SSW,198,6.0,10.0,65,0.00,,,0.00,weatherlink.com 1.10,2013-04-16 14:26:00,
2013-04-16 10:41:00,50.8,40.0,30.09,SW,214,12.0,16.0,66,0.00,,,0.00,weatherlink.com 1.10,2013-04-16 14:41:00,
2013-04-16 10:56:00,51.2,41.0,30.10,SW,234,7.0,13.0,67,0.00,,,0.00,weatherlink.com 1.10,2013-04-16 14:56:00,
2013-04-16 11:11:00,51.3,41.0,30.09,West,259,5.0,9.0,68,0.00,,,0.00,weatherlink.com 1.10,2013-04-16 15:11:00,
2013-04-16 11:26:00,51.4,42.0,30.08,South,169,3.0,12.0,69,0.00,,,0.00,weatherlink.com 1.10,2013-04-16 15:26:00,
2013-04-16 11:41:00,51.8,42.0,30.07,SW,224,2.0,15.0,69,0.00,,,0.00,weatherlink.com 1.10,2013-04-16 15:41:00,
2013-04-16 11:56:00,51.9,43.0,30.07,SSW,207,8.0,18.0,71,0.00,,,0.00,weatherlink.com 1.10,2013-04-16 15:56:00,
2013-04-16 12:11:00,52.0,43.0,30.07,West,260,7.0,15.0,71,0.00,,,0.00,weatherlink.com 1.10,2013-04-16 16:11:00,
2013-04-16 12:26:00,52.1,43.0,30.06,SSE,151,4.0,10.0,71,0.00,,,0.00,weatherlink.com 1.10,2013-04-16 16:26:00,
2013-04-16 12:42:00,51.7,43.0,30.06,SE,143,1.0,9.0,72,0.00,,,0.00,weatherlink.com 1.10,2013-04-16 16:42:00,
2013-04-16 12:56:00,51.4,43.0,30.06,SSW,207,2.0,7.0,73,0.00,,,0.00,weatherlink.com 1.10,2013-04-16 16:56:00,
2013-04-16 13:12:00,51.6,44.0,30.05,WSW,240,1.0,13.0,74,0.00,,,0.00,weatherlink.com 1.10,2013-04-16 17:12:00,
2013-04-16 13:27:00,52.0,45.0,30.05,ENE,73,1.0,18.0,76,0.00,,,0.00,weatherlink.com 1.10,2013-04-16 17:27:00,
2013-04-16 13:42:00,52.1,45.0,30.05,SSW,201,5.0,14.0,76,0.00,,,0.00,weatherlink.com 1.10,2013-04-16 17:42:00,
2013-04-16 13:57:00,51.6,45.0,30.05,ESE,108,1.0,12.0,79,0.00,,,0.00,weatherlink.com 1.10,2013-04-16 17:57:00,
2013-04-16 14:12:00,50.2,46.0,30.05,SW,217,8.0,11.0,86,0.02,,,0.02,weatherlink.com 1.10,2013-04-16 18:12:00,
2013-04-16 14:27:00,49.6,46.0,30.04,SW,232,5.0,18.0,88,0.02,,,0.02,weatherlink.com 1.10,2013-04-16 18:27:00,
2013-04-16 14:42:00,49.3,46.0,30.03,WSW,239,2.0,11.0,89,0.02,,,0.02,weatherlink.com 1.10,2013-04-16 18:42:00,
2013-04-16 14:57:00,49.4,47.0,30.02,WNW,300,2.0,14.0,90,0.02,,,0.02,weatherlink.com 1.10,2013-04-16 18:57:00,
2013-04-16 15:12:00,49.6,47.0,30.01,West,271,7.0,13.0,90,0.00,,,0.02,weatherlink.com 1.10,2013-04-16 19:12:00,
2013-04-16 15:27:00,49.8,47.0,30.01,SSW,204,2.0,14.0,90,0.00,,,0.02,weatherlink.com 1.10,2013-04-16 19:27:00,
2013-04-16 15:42:00,50.0,47.0,29.99,South,186,6.0,11.0,90,0.00,,,0.02,weatherlink.com 1.10,2013-04-16 19:42:00,
2013-04-16 15:57:00,50.6,48.0,29.98,SSW,193,3.0,14.0,90,0.00,,,0.02,weatherlink.com 1.10,2013-04-16 19:57:00,
2013-04-16 16:12:00,50.8,48.0,29.99,West,259,5.0,19.0,90,0.00,,,0.02,weatherlink.com 1.10,2013-04-16 20:12:00,
2013-04-16 16:27:00,50.6,48.0,29.99,South,186,1.0,15.0,90,0.00,,,0.02,weatherlink.com 1.10,2013-04-16 20:27:00,
2013-04-16 16:42:00,50.6,48.0,29.99,South,188,5.0,17.0,91,0.00,,,0.02,weatherlink.com 1.10,2013-04-16 20:42:00,
2013-04-16 16:57:00,50.5,48.0,29.99,South,188,6.0,11.0,92,0.00,,,0.02,weatherlink.com 1.10,2013-04-16 20:57:00,
2013-04-16 17:12:00,50.3,48.0,29.99,SSW,208,2.0,13.0,93,0.00,,,0.02,weatherlink.com 1.10,2013-04-16 21:12:00,
2013-04-16 17:27:00,50.4,49.0,29.98,SSW,192,4.0,12.0,94,0.01,,,0.03,weatherlink.com 1.10,2013-04-16 21:27:00,
2013-04-16 17:43:00,50.6,49.0,29.98,NW,320,2.0,11.0,94,0.01,,,0.03,weatherlink.com 1.10,2013-04-16 21:43:00,
2013-04-16 17:57:00,50.9,49.0,29.97,WNW,297,1.0,13.0,94,0.01,,,0.03,weatherlink.com 1.10,2013-04-16 21:57:00,
2013-04-16 18:12:00,51.2,49.0,29.96,NW,311,3.0,12.0,93,0.01,,,0.03,weatherlink.com 1.10,2013-04-16 22:12:00,
2013-04-16 18:27:00,51.4,50.0,29.96,SSW,200,9.0,13.0,93,0.00,,,0.03,weatherlink.com 1.10,2013-04-16 22:27:00,
2013-04-16 18:42:00,51.6,49.0,29.95,SSE,149,5.0,8.0,92,0.00,,,0.03,weatherlink.com 1.10,2013-04-16 22:42:00,
2013-04-16 18:57:00,51.7,50.0,29.94,SSE,159,8.0,16.0,92,0.00,,,0.03,weatherlink.com 1.10,2013-04-16 22:57:00,
2013-04-16 19:12:00,51.8,50.0,29.95,WNW,283,3.0,9.0,92,0.00,,,0.03,weatherlink.com 1.10,2013-04-16 23:12:00,
2013-04-16 19:27:00,51.9,50.0,29.94,East,96,5.0,9.0,93,0.00,,,0.03,weatherlink.com 1.10,2013-04-16 23:27:00,
2013-04-16 19:42:00,51.9,50.0,29.95,SW,233,3.0,15.0,93,0.00,,,0.03,weatherlink.com 1.10,2013-04-16 23:42:00,
2013-04-16 19:57:00,51.8,50.0,29.95,WSW,245,3.0,9.0,93,0.00,,,0.03,weatherlink.com 1.10,2013-04-16 23:57:00,
2013-04-16 20:12:00,51.7,50.0,29.96,West,263,4.0,8.0,94,0.00,,,0.03,weatherlink.com 1.10,2013-04-17 00:12:00,
2013-04-16 20:27:00,51.4,50.0,29.97,West,267,1.0,11.0,94,0.00,,,0.03,weatherlink.com 1.10,2013-04-17 00:27:00,
2013-04-16 20:42:00,51.2,50.0,29.97,East,94,5.0,8.0,95,0.00,,,0.03,weatherlink.com 1.10,2013-04-17 00:42:00,
2013-04-16 20:57:00,51.2,50.0,29.97,West,277,2.0,8.0,95,0.00,,,0.03,weatherlink.com 1.10,2013-04-17 00:57:00,
2013-04-16 21:12:00,51.5,50.0,29.98,WNW,285,4.0,11.0,96,0.03,,,0.06,weatherlink.com 1.10,2013-04-17 01:12:00,
2013-04-16 21:27:00,51.6,51.0,30.00,WNW,300,3.0,17.0,96,0.04,,,0.07,weatherlink.com 1.10,2013-04-17 01:27:00,
2013-04-16 21:42:00,51.3,50.0,30.00,SSW,207,2.0,9.0,96,0.04,,,0.07,weatherlink.com 1.10,2013-04-17 01:42:00,
2013-04-16 21:57:00,51.1,50.0,30.01,WSW,243,1.0,8.0,96,0.04,,,0.07,weatherlink.com 1.10,2013-04-17 01:57:00,
2013-04-16 22:12:00,50.5,49.0,30.02,SW,219,4.0,14.0,94,0.01,,,0.07,weatherlink.com 1.10,2013-04-17 02:12:00,
2013-04-16 22:27:00,49.9,48.0,30.02,West,278,1.0,10.0,93,0.00,,,0.07,weatherlink.com 1.10,2013-04-17 02:27:00,
2013-04-16 22:42:00,49.2,47.0,30.03,WSW,246,5.0,8.0,92,0.00,,,0.07,weatherlink.com 1.10,2013-04-17 02:42:00,
2013-04-16 22:57:00,48.7,46.0,30.04,NW,311,11.0,13.0,91,0.00,,,0.07,weatherlink.com 1.10,2013-04-17 02:57:00,
2013-04-16 23:12:00,47.3,44.0,30.05,WNW,284,4.0,9.0,88,0.00,,,0.07,weatherlink.com 1.10,2013-04-17 03:12:00,
2013-04-16 23:27:00,46.2,42.0,30.05,WNW,283,4.0,10.0,84,0.00,,,0.07,weatherlink.com 1.10,2013-04-17 03:27:00,
2013-04-16 23:42:00,45.3,41.0,30.05,North,351,1.0,10.0,84,0.00,,,0.07,weatherlink.com 1.10,2013-04-17 03:42:00,
2013-04-16 23:57:00,44.8,39.0,30.07,WNW,293,5.0,15.0,81,0.00,,,0.07,weatherlink.com 1.10,2013-04-17 03:57:00,